[[{"header":{"parameterUnit":"m.s-1","parameterCategory":1,"la1":30.2991,"la2":30.254,"lo1":-89.0895,"lo2":-89.0444,"dy":0.0017,"dx":0.0017,"nx":28,"ny":28,"refTime":"2025-09-02T09:00:00:Z","depth":0,"parameterNumber":2,"parameterNumberName":"U-component_of_WINDS"},"data":[0,0,0,0,0,0,0,0,0,0,0,0,0,0,0,0,0,0,0,0,0,0,0,0,0,0,0,0,0,0,0,0,0,0,0,0,0,0,0,0,0,0,0,0,0,0,0,0,0,0,0,0,0,0,0,0,0,0,-2.4107,-2.4107,0,-2.4082,-2.4082,-2.4081,-2.4,-2.3999,-2.3997,-2.3995,-2.3972,-2.3973,-2.3974,0,0,0,0,0,0,0,0,0,0,0,0,0,-2.4089,-2.409,-2.4107,-2.4107,-2.4107,-2.4082,-2.4082,-2.4081,-2.4001,-2.3999,-2.3996,-2.3994,-2.3971,-2.3972,-2.3974,0,0,0,0,0,0,0,0,0,0,0,0,0,-2.4084,-2.409,-2.4108,-2.4064,-2.4059,-2.4082,-2.4082,-2.4081,-2.4001,-2.3999,-2.3996,-2.3993,-2.3971,-2.3972,-2.3974,-2.4038,0,0,-2.3979,-2.3979,0,0,0,0,0,0,0,0,-2.4084,-2.4084,-2.407,-2.4067,-2.4062,-2.4042,-2.4066,-2.4067,-2.4002,-2.4023,-2.3995,-2.3992,-2.3997,-2.3996,-2.3998,-2.4037,-2.4036,-2.3979,-2.398,-2.398,-2.3981,0,0,0,0,0,0,0,-2.4084,-2.4085,-2.4097,-2.407,-2.4065,-2.4046,-2.4042,-2.4066,-2.4026,-2.4021,-2.4015,-2.4013,-2.3994,-2.3996,-2.3997,-2.4035,-2.3979,-2.398,-2.3981,-2.3982,-2.4126,-2.4129,0,0,0,0,0,0,-2.4091,-2.4086,-2.4098,-2.4097,-2.4066,-2.4049,-2.4044,-2.4051,-2.4025,-2.4019,-2.4016,-2.401,-2.3995,-2.3995,-2.3995,-2.4069,-2.398,-2.3982,-2.3983,-2.4123,-2.4126,-2.413,0,0,0,0,0,0,-2.4091,-2.4093,-2.4099,-2.409,-2.4089,-2.4052,-2.406,-2.4052,-2.4054,-2.4021,-2.4014,-2.4025,-2.3993,-2.3993,-2.4028,-2.4067,-2.3983,-2.3984,-2.412,-2.4124,-2.4128,-2.4216,0,0,0,0,0,0,-2.4091,-2.4093,-2.4116,-2.4091,-2.409,-2.4132,-2.4062,-2.4053,-2.4056,-2.4048,-2.4028,-2.4022,-2.3991,-2.4026,-2.4029,-2.4067,-2.3985,-2.4116,-2.4122,-2.4127,-2.4209,-2.4223,-2.4234,0,0,0,0,0,-2.409,-2.4143,-2.4118,-2.412,-2.4118,-2.4134,-2.4133,-2.4096,-2.406,-2.4083,-2.4062,-2.4022,-2.4062,-2.403,-2.4033,-2.4072,-2.4113,-2.412,-2.4126,-2.4204,-2.422,-2.4234,0,0,0,0,0,0,-2.4175,-2.4138,-2.4111,-2.4156,-2.4149,-2.412,-2.4149,-2.4114,-2.4117,-2.411,-2.4064,-2.406,-2.4101,-2.409,-2.4055,-2.4133,-2.4081,-2.4088,-2.4139,-2.4154,-2.4166,-2.4168,-2.3987,0,0,0,0,0,-2.4198,-2.4214,-2.4181,-2.4225,-2.4222,-2.4187,-2.4192,-2.4164,-2.4154,-2.4151,-2.4132,-2.4126,-2.4136,-2.4144,-2.4153,-2.4207,-2.4202,-2.4236,-2.4248,-2.4259,-2.4266,-2.4294,-2.4309,-2.4151,-2.4151,-2.4151,0,0,-2.4248,-2.423,-2.4243,-2.4241,-2.4232,-2.425,-2.4184,-2.4206,-2.4218,-2.4154,-2.4186,-2.4172,-2.4161,-2.4207,-2.4225,-2.4199,-2.4308,-2.4267,-2.4275,-2.4277,-2.4303,-2.4318,-2.4331,-2.4155,-2.4154,-2.4154,0,0,-2.4347,-2.4335,-2.437,-2.4362,-2.4349,-2.4324,-2.4333,-2.431,-2.4298,-2.4329,-2.4281,-2.4296,-2.4315,-2.431,-2.431,-2.4407,-2.4371,-2.4411,-2.4476,-2.4505,-2.4517,-2.4528,-2.4564,-2.4577,-2.4419,-2.4419,-2.4419,0,-2.4411,-2.4435,-2.4393,-2.4417,-2.4418,-2.436,-2.4396,-2.439,-2.4381,-2.4383,-2.4353,-2.4376,-2.4365,-2.4408,-2.4432,-2.4434,-2.4443,-2.4414,-2.4519,-2.4529,-2.4539,-2.4572,-2.4585,-2.4424,-2.4423,-2.4423,-2.4422,0,-2.4514,-2.4531,-2.4561,-2.4552,-2.4557,-2.4587,-2.455,-2.456,-2.4531,-2.4511,-2.4543,-2.4528,-2.4532,-2.454,-2.4512,-2.4579,-2.4563,-2.4527,-2.4473,-2.4559,-2.459,-2.4602,-2.4431,-2.4429,-2.4428,-2.4426,0,0,-2.4666,-2.4633,-2.4645,-2.4641,-2.4622,-2.4635,-2.4663,-2.4666,-2.4675,-2.4671,-2.4693,-2.4711,-2.4677,-2.4677,-2.4649,-2.4674,-2.4753,-2.4634,-2.4633,-2.4657,-2.4827,-2.4855,-2.487,-2.4728,-2.4731,-2.4732,-2.4828,0,-2.476,-2.4805,-2.4768,-2.4819,-2.4835,-2.4781,-2.4805,-2.4797,-2.4778,-2.479,-2.4769,-2.4783,-2.4737,-2.4736,-2.4759,-2.4739,-2.4786,-2.4731,-2.475,-2.4751,-2.4755,-2.4886,-2.4915,-2.5006,-2.4839,-2.4841,-2.4843,0,-2.4876,-2.4876,-2.493,-2.4907,-2.4913,-2.4935,-2.4935,-2.4946,-2.4936,-2.4921,-2.4921,-2.4886,-2.4912,-2.486,-2.4897,-2.486,-2.4865,-2.4857,-2.4859,-2.486,-2.4802,-2.4891,-2.5034,-2.5048,-2.4861,-2.4859,-2.4858,0,-2.4982,-2.4996,-2.5029,-2.5027,-2.5002,-2.5019,-2.501,-2.4997,-2.5001,-2.5002,-2.5004,-2.5008,-2.5011,-2.5015,-2.4983,-2.4947,-2.5024,-2.4968,-2.5013,-2.5014,-2.5031,-2.5031,-2.5178,-2.5034,-2.5034,-2.5034,-2.5034,0,-2.5092,-2.5127,-2.5077,-2.5097,-2.5135,-2.5093,-2.5132,-2.5116,-2.5105,-2.5123,-2.5076,-2.5094,-2.5049,-2.5063,-2.5038,-2.5072,-2.5073,-2.5062,-2.5055,-2.5067,-2.5068,-2.507,-2.5063,-2.5038,-2.5037,-2.5036,-2.5035,0,-2.5217,-2.5184,-2.5218,-2.5191,-2.5185,-2.5214,-2.5192,-2.5211,-2.5189,-2.5212,-2.5215,-2.5182,-2.5195,-2.5163,-2.5171,-2.5154,-2.5204,-2.5186,-2.5207,-2.5202,-2.5248,-2.5245,-2.5402,-2.5421,-2.5265,-2.5267,-2.5268,0,-2.5289,-2.5314,-2.529,-2.5298,-2.5291,-2.5305,-2.5309,-2.5269,-2.5275,-2.5266,-2.5286,-2.5295,-2.53,-2.5324,-2.5301,-2.5308,-2.5291,-2.5346,-2.5292,-2.5303,-2.5292,-2.5292,-2.5294,-2.5357,-2.5359,-2.5361,-2.5362,0,-2.5421,-2.5403,-2.5411,-2.5413,-2.5419,-2.5419,-2.5416,-2.5425,-2.5382,-2.5392,-2.5405,-2.5409,-2.5418,-2.5428,-2.5429,-2.542,-2.5385,-2.5379,-2.539,-2.5402,-2.5413,-2.5408,-2.5238,-2.5376,-2.5374,-2.5373,-2.5372,-2.5372,-2.5521,-2.5542,-2.5528,-2.5538,-2.5531,-2.5529,-2.5546,-2.5526,-2.5536,-2.5539,-2.5515,-2.5533,-2.5523,-2.5521,-2.5516,-2.553,-2.5505,-2.5521,-2.5525,-2.5529,-2.5537,-2.541,-2.553,-2.553,-2.5529,-2.5529,-2.5529,0,-2.5651,-2.564,-2.5649,-2.5646,-2.5654,-2.5618,-2.5613,-2.5623,-2.5639,-2.5632,-2.5638,-2.5653,-2.5663,-2.5641,-2.5647,-2.5663,-2.5647,-2.5666,-2.5665,-2.5664,-2.5558,-2.5549,-2.5679,-2.5679,-2.5679,-2.5679,-2.5679,-2.5679,-2.5719,-2.5752,-2.5733,-2.5762,-2.5751,-2.5767,-2.5768,-2.5766,-2.576,-2.5779,-2.5786,-2.5772,-2.5759,-2.5764,-2.5772,-2.5765,-2.577,-2.5795,-2.5783,-2.5686,-2.5671,-2.5657,-2.5648,-2.5797,-2.5797,-2.5887,-2.5888,-2.5889]},{"header":{"parameterUnit":"m.s-1","parameterCategory":1,"la1":30.2991,"la2":30.254,"lo1":-89.0895,"lo2":-89.0444,"dy":0.0017,"dx":0.0017,"nx":28,"ny":28,"refTime":"2025-09-02T09:00:00:Z","depth":0,"parameterNumber":3,"parameterNumberName":"V-component_of_WINDS"},"data":[0,0,0,0,0,0,0,0,0,0,0,0,0,0,0,0,0,0,0,0,0,0,0,0,0,0,0,0,0,0,0,0,0,0,0,0,0,0,0,0,0,0,0,0,0,0,0,0,0,0,0,0,0,0,0,0,0,0,-1.2563,-1.2563,0,-1.2603,-1.2604,-1.2604,-1.258,-1.2579,-1.2578,-1.2577,-1.2615,-1.2617,-1.2619,0,0,0,0,0,0,0,0,0,0,0,0,0,-1.2463,-1.2465,-1.2563,-1.2563,-1.2564,-1.2603,-1.2604,-1.2604,-1.258,-1.2579,-1.2578,-1.2576,-1.2614,-1.2616,-1.2619,0,0,0,0,0,0,0,0,0,0,0,0,0,-1.2505,-1.2465,-1.2563,-1.2557,-1.2557,-1.2603,-1.2604,-1.2604,-1.2581,-1.2579,-1.2577,-1.2576,-1.2613,-1.2616,-1.2619,-1.2673,0,0,-1.2629,-1.263,0,0,0,0,0,0,0,0,-1.2502,-1.2508,-1.2557,-1.2557,-1.2557,-1.2585,-1.2582,-1.2627,-1.2581,-1.2571,-1.2577,-1.2575,-1.2606,-1.261,-1.2621,-1.2674,-1.2676,-1.2629,-1.2631,-1.2632,-1.2633,0,0,0,0,0,0,0,-1.2499,-1.2507,-1.2579,-1.2558,-1.2558,-1.2551,-1.2555,-1.2591,-1.2598,-1.2572,-1.2571,-1.2576,-1.2606,-1.2618,-1.2621,-1.2677,-1.2629,-1.2632,-1.2634,-1.2635,-1.2776,-1.2778,0,0,0,0,0,0,-1.2497,-1.2504,-1.2577,-1.258,-1.2525,-1.2554,-1.2559,-1.2578,-1.2597,-1.2599,-1.2577,-1.2575,-1.2613,-1.2618,-1.2623,-1.2687,-1.2632,-1.2635,-1.2637,-1.2775,-1.2777,-1.2779,0,0,0,0,0,0,-1.2495,-1.2504,-1.2576,-1.2542,-1.255,-1.2558,-1.2579,-1.2579,-1.2592,-1.2601,-1.2602,-1.2589,-1.2612,-1.2618,-1.2661,-1.2688,-1.2637,-1.2639,-1.2772,-1.2775,-1.2778,-1.2816,0,0,0,0,0,0,-1.2493,-1.2504,-1.2525,-1.2542,-1.2552,-1.2614,-1.2581,-1.2581,-1.2597,-1.2594,-1.2612,-1.2613,-1.2611,-1.2656,-1.2664,-1.2691,-1.2642,-1.277,-1.2774,-1.2777,-1.2812,-1.2819,-1.2826,0,0,0,0,0,-1.2489,-1.2533,-1.2526,-1.2535,-1.2579,-1.2616,-1.2621,-1.2619,-1.26,-1.2621,-1.2627,-1.2613,-1.2684,-1.2661,-1.2669,-1.2698,-1.2768,-1.2773,-1.2777,-1.2809,-1.2818,-1.2826,0,0,0,0,0,0,-1.2516,-1.2535,-1.2527,-1.2578,-1.2596,-1.2612,-1.2638,-1.2629,-1.2651,-1.2647,-1.2642,-1.2647,-1.2691,-1.2698,-1.2673,-1.2751,-1.2723,-1.2729,-1.2744,-1.2753,-1.276,-1.2757,-1.2644,0,0,0,0,0,-1.2529,-1.2558,-1.2572,-1.2616,-1.2625,-1.263,-1.2646,-1.2643,-1.266,-1.2667,-1.2677,-1.2693,-1.2719,-1.2736,-1.2761,-1.2813,-1.2816,-1.2837,-1.2844,-1.2849,-1.2855,-1.2883,-1.2892,-1.2793,-1.2793,-1.2793,0,0,-1.2554,-1.2567,-1.2586,-1.2622,-1.2635,-1.2665,-1.2636,-1.2669,-1.2691,-1.2672,-1.2713,-1.2721,-1.2739,-1.2786,-1.2808,-1.2794,-1.2883,-1.2855,-1.2859,-1.2861,-1.2888,-1.2898,-1.2906,-1.2796,-1.2795,-1.2795,0,0,-1.2615,-1.2628,-1.2667,-1.2681,-1.2702,-1.2705,-1.2714,-1.2732,-1.2736,-1.2778,-1.2764,-1.279,-1.2834,-1.2848,-1.2861,-1.2928,-1.2916,-1.2936,-1.2972,-1.3,-1.3008,-1.3015,-1.3039,-1.3048,-1.2942,-1.2942,-1.2942,0,-1.2643,-1.2689,-1.2687,-1.2721,-1.2737,-1.2723,-1.2761,-1.2774,-1.2802,-1.2813,-1.2797,-1.2854,-1.2865,-1.2916,-1.2932,-1.2943,-1.2953,-1.2934,-1.3007,-1.3014,-1.302,-1.3043,-1.3053,-1.2944,-1.2944,-1.2943,-1.2943,0,-1.2723,-1.2754,-1.2782,-1.2811,-1.283,-1.2866,-1.2869,-1.2888,-1.2884,-1.2888,-1.293,-1.2943,-1.2971,-1.2982,-1.2977,-1.3033,-1.3024,-1.3008,-1.298,-1.3032,-1.3054,-1.3063,-1.2947,-1.2946,-1.2946,-1.2945,0,0,-1.2802,-1.283,-1.284,-1.2853,-1.2875,-1.2899,-1.2934,-1.2962,-1.2979,-1.2998,-1.3028,-1.3066,-1.3052,-1.3067,-1.3063,-1.3088,-1.3141,-1.3069,-1.3069,-1.3082,-1.3202,-1.3215,-1.3225,-1.3133,-1.3134,-1.3136,-1.3201,0,-1.2864,-1.2928,-1.2927,-1.2985,-1.3014,-1.3001,-1.3032,-1.3048,-1.3054,-1.3079,-1.3084,-1.3112,-1.3091,-1.3099,-1.3123,-1.3129,-1.3165,-1.3124,-1.3159,-1.3161,-1.3156,-1.3236,-1.3249,-1.331,-1.3209,-1.3211,-1.3212,0,-1.2946,-1.297,-1.3031,-1.305,-1.3062,-1.309,-1.3116,-1.314,-1.3159,-1.3161,-1.3178,-1.3171,-1.3206,-1.3177,-1.3225,-1.3197,-1.3211,-1.3217,-1.3219,-1.3222,-1.319,-1.3242,-1.3329,-1.3339,-1.3225,-1.3224,-1.3223,0,-1.2998,-1.3045,-1.3088,-1.31,-1.3123,-1.3143,-1.3153,-1.317,-1.3187,-1.3209,-1.322,-1.3245,-1.3259,-1.3279,-1.3278,-1.3257,-1.3327,-1.3298,-1.3329,-1.333,-1.3345,-1.3344,-1.3436,-1.3354,-1.3353,-1.3353,-1.3353,0,-1.3068,-1.3106,-1.3112,-1.3139,-1.3181,-1.318,-1.3221,-1.3229,-1.3245,-1.3272,-1.3261,-1.3287,-1.3285,-1.3311,-1.331,-1.335,-1.3357,-1.3359,-1.3358,-1.336,-1.336,-1.3369,-1.3365,-1.3356,-1.3355,-1.3355,-1.3354,0,-1.3133,-1.3139,-1.3185,-1.3204,-1.3209,-1.3239,-1.3255,-1.328,-1.3284,-1.3319,-1.3327,-1.3334,-1.3364,-1.3365,-1.3399,-1.3399,-1.3448,-1.3442,-1.3442,-1.3441,-1.3473,-1.347,-1.3575,-1.3588,-1.3497,-1.3498,-1.3498,0,-1.3178,-1.3207,-1.323,-1.3248,-1.326,-1.3289,-1.3307,-1.3307,-1.3325,-1.3349,-1.3371,-1.34,-1.3423,-1.3471,-1.3479,-1.3505,-1.35,-1.3535,-1.3503,-1.3504,-1.3501,-1.3499,-1.3502,-1.3541,-1.3542,-1.3543,-1.3543,0,-1.3257,-1.3258,-1.3285,-1.3313,-1.3335,-1.3357,-1.3377,-1.3392,-1.3394,-1.3416,-1.3447,-1.3465,-1.3501,-1.3529,-1.3555,-1.3564,-1.3554,-1.3553,-1.3562,-1.3564,-1.3563,-1.3564,-1.3459,-1.3551,-1.355,-1.3549,-1.3549,-1.3549,-1.3313,-1.3339,-1.3359,-1.3389,-1.3405,-1.3424,-1.3449,-1.3457,-1.3484,-1.3513,-1.3511,-1.3546,-1.3564,-1.3597,-1.3609,-1.3635,-1.3623,-1.3635,-1.3638,-1.3642,-1.3645,-1.3559,-1.3639,-1.3639,-1.3639,-1.3639,-1.3639,0,-1.3391,-1.3404,-1.3432,-1.3462,-1.3485,-1.3475,-1.3497,-1.3518,-1.3549,-1.3567,-1.359,-1.3626,-1.3654,-1.3664,-1.3692,-1.3711,-1.3707,-1.3718,-1.3716,-1.3719,-1.3654,-1.3644,-1.3721,-1.3721,-1.3721,-1.3721,-1.3721,-1.3721,-1.3435,-1.3478,-1.3482,-1.3533,-1.3545,-1.358,-1.3593,-1.3611,-1.3626,-1.3667,-1.3691,-1.3698,-1.3712,-1.3741,-1.3766,-1.3768,-1.3779,-1.3792,-1.3792,-1.3732,-1.3723,-1.3715,-1.3706,-1.3794,-1.3794,-1.3855,-1.3855,-1.3855]}]]